Regional Weather Roundup
Issued by NWS

Home | Current Version | Previous Version | Graphics & Text | Print | Product List | Glossary On
Versions: 1 2 3 4 5 6 7 8 9 10 11 12 13 14 15 16 17 18 19 20 21 22 23 24 25 26 27 28 29 30 31 32 33 34 35 36 37 38 39 40 41 42 43 44 45 46 47 48 49 50
000
ASUS43 KLMK 152010
RWRKY
KENTUCKY REGIONAL WEATHER ROUNDUP
NATIONAL WEATHER SERVICE LOUISVILLE KY
400 PM EDT MON SEP 15 2014

NOTE "FAIR" INDICATES FEW OR NO CLOUDS BELOW 12,000 FEET
WITH NO SIGNIFICANT WEATHER AND/OR OBSTRUCTIONS TO VISIBILITY.

KYZ001>023-026-027-061>063-070>075-152100-
WESTERN AND SOUTH CENTRAL KENTUCKY

CITY           SKY/WX    TMP DP  RH WIND       PRES   REMARKS
PADUCAH        CLOUDY    77  59  53 SW9       30.09F
HENDERSON      PTSUNNY   79  54  41 SW7       30.09F
OWENSBORO      PTSUNNY   78  56  46 S9        30.11F
HOPKINSVILLE   CLOUDY    73  60  62 S5        30.12F
BOWLING GREEN  CLOUDY    74  57  55 SW5       30.13F
GLASGOW        CLOUDY    72  59  62 W3        30.14S
$$

KYZ024-025-028>034-038-045-046-053-152100-
NORTH CENTRAL KENTUCKY

CITY           SKY/WX    TMP DP  RH WIND       PRES   REMARKS
LOUISVILLE/SDF CLOUDY    74  53  48 W3        30.13S
LOUISVILLE/LOU CLOUDY    73  54  51 NW5       30.14S
FORT KNOX      CLOUDY    73  58  60 N8        30.13S
$$

KYZ035>037-039>044-047>052-055>060-089>105-152100-
NORTHEAST KENTUCKY

CITY           SKY/WX    TMP DP  RH WIND       PRES   REMARKS
LEXINGTON      MOSUNNY   76  54  46 SW6       30.15S
COVINGTON      CLOUDY    70  52  52 SW5       30.14F
FRANKFORT      NOT AVBL
$$

KYZ054-064>069-076>088-106>120-152100-
SOUTHEAST KENTUCKY

CITY           SKY/WX    TMP DP  RH WIND       PRES   REMARKS
JACKSON        MOSUNNY   74  59  59 VRB3      30.15S
LONDON         CLOUDY    74  56  53 W6        30.16F
SOMERSET       NOT AVBL
MIDDLESBORO    CLOUDY    74  64  70 S5        30.15S
MONTICELLO     CLOUDY    73  63  71 CALM      30.16F
$$




USA.gov is the U.S. government's official web portal to all federal, state and local government web resources and services.